Omaha Offutt, NE

3:03 PM CDT on October 23, 2017 (GMT -0500)
Offutt Air Force Base

Weather History for KOFF - December, 2012

Change the Weather History Date:

Saturday, December 8, 2012

  Actual Average Record
Temperature  
Mean Temperature 32 °F -  
Max Temperature 39 °F 40 °F 54 °F (2015)
Min Temperature 24 °F 22 °F -2 °F (2005)
Degree Days  
Heating Degree Days 34    
Moisture  
Dew Point 29 °F    
Average Humidity 82    
Maximum Humidity 100    
Minimum Humidity 62    
Precipitation  
Precipitation 0.00 in - - ()
Sea Level Pressure  
Sea Level Pressure 29.98 in    
Wind  
Wind Speed 5 mph (East)    
Max Wind Speed 13 mph    
Max Gust Speed -    
Visibility 10 miles    
Events      
Averages and records for this station are not official NWS values.
T = Trace of Precipitation, MM = Missing Value Source: NWS Daily Summary

Daily Weather History Graph

Daily Weather History Graph

Search for Another Location

Airport or City:

Trip Planner

Search our weather history database for the weather conditions in past years. The results will help you decide how hot, cold, wet, or windy it might be!

Date:

Astronomy

Dec. 08, 2012 Rise Set
Actual Time 7:36 AM CST 4:54 PM CST
Civil Twilight 7:05 AM CST 5:25 PM CST
Nautical Twilight 6:31 AM CST 6:00 PM CST
Astronomical Twilight 5:57 AM CST 6:33 PM CST
Moon 2:00 AM CST (12/8) 1:27 PM CST (12/8)
Length of Visible Light 10h 20m
Length of Day
9h 18m
Waning Crescent, 28% of the Moon is Illuminated
Dec 8
Waning Crescent
Dec 13
New
Dec 19
First Quarter
Dec 28
Full
Jan 4
Last Quarter

Hourly Weather History & Observations

Time (CST) Temp. Windchill Dew Point Humidity Pressure Visibility Wind Dir Wind Speed Gust Speed Precip Events Conditions
12:55 AM 29.8 °F 26.3 °F 24.6 °F 81% 30.00 in 10.0 mi NW 3.5 mph - N/A   Clear
1:55 AM 28.2 °F 23.1 °F 26.1 °F 92% 30.00 in 10.0 mi NW 4.6 mph - N/A   Scattered Clouds
2:55 AM 29.5 °F 23.4 °F 27.7 °F 93% 30.02 in 10.0 mi NNW 5.8 mph - N/A   Mostly Cloudy
3:55 AM 27.9 °F - 26.6 °F 95% 30.01 in 10.0 mi Calm Calm - N/A   Partly Cloudy
4:33 AM 24.8 °F 20.5 °F 24.8 °F 100% 30.01 in 10.0 mi North 3.5 mph - N/A   Mostly Cloudy
4:55 AM 28.8 °F 23.7 °F 28.4 °F 99% 30.01 in 10.0 mi North 4.6 mph - N/A   Overcast
5:55 AM 31.8 °F 27.3 °F 29.1 °F 90% 30.02 in 10.0 mi North 4.6 mph - N/A   Overcast
6:55 AM 31.8 °F 27.3 °F 28.4 °F 87% 30.03 in 10.0 mi North 4.6 mph - N/A   Overcast
7:31 AM 32.0 °F 28.7 °F 28.4 °F 87% 30.02 in 10.0 mi NE 3.5 mph - N/A   Overcast
7:44 AM 32.0 °F - 28.4 °F 87% 30.03 in 10.0 mi Calm Calm - N/A   Overcast
7:55 AM 30.4 °F - 28.9 °F 94% 30.03 in 10.0 mi Calm Calm - N/A   Overcast
8:09 AM 30.2 °F 26.7 °F 28.4 °F 93% 30.03 in 10.0 mi ENE 3.5 mph - N/A   Scattered Clouds
8:55 AM 30.2 °F 26.7 °F 28.4 °F 93% 30.12 in 10.0 mi NNE 3.5 mph - N/A   Overcast
9:55 AM 32.0 °F - 26.6 °F 80% 30.13 in 10.0 mi Calm Calm - N/A   Mostly Cloudy
10:23 AM 32.0 °F - 26.6 °F 80% 30.00 in 10.0 mi ESE 1.2 mph - N/A   Mostly Cloudy
10:55 AM 34.2 °F - 26.6 °F 74% 30.04 in 10.0 mi Calm Calm - N/A   Mostly Cloudy
11:55 AM 36.0 °F 32.1 °F 27.1 °F 70% 30.01 in 10.0 mi East 4.6 mph - N/A   Overcast
12:55 PM 37.4 °F 32.1 °F 27.5 °F 67% 29.97 in 10.0 mi ESE 6.9 mph - N/A   Overcast
1:55 PM 37.9 °F 30.9 °F 28.4 °F 69% 29.95 in 10.0 mi ESE 10.4 mph - N/A   Partly Cloudy
2:55 PM 39.2 °F 34.2 °F 28.6 °F 66% 29.93 in 10.0 mi ESE 6.9 mph - N/A   Overcast
3:55 PM 39.9 °F 32.5 °F 27.9 °F 62% 29.91 in 10.0 mi ESE 12.7 mph - N/A   Partly Cloudy
4:55 PM 39.6 °F 33.0 °F 28.2 °F 64% 29.91 in 10.0 mi SE 10.4 mph - N/A   Mostly Cloudy
5:55 PM 38.5 °F 33.4 °F 28.8 °F 68% 29.91 in 10.0 mi ESE 6.9 mph - N/A   Overcast
6:55 PM 37.6 °F 32.3 °F 28.2 °F 69% 29.93 in 10.0 mi ESE 6.9 mph - N/A   Overcast
7:55 PM 37.8 °F 31.8 °F 29.1 °F 71% 29.92 in 10.0 mi ESE 8.1 mph - N/A   Overcast
8:55 PM 38.1 °F 30.7 °F 31.3 °F 76% 29.91 in 10.0 mi ESE 11.5 mph - N/A   Overcast
9:55 PM 37.2 °F 31.2 °F 32.4 °F 83% 29.92 in 10.0 mi SE 8.1 mph - N/A   Overcast
10:11 PM 37.4 °F 31.4 °F 32.0 °F 81% 29.93 in 10.0 mi SE 8.1 mph - N/A   Overcast
10:41 PM 37.4 °F 32.1 °F 32.0 °F 81% 29.93 in 10.0 mi ESE 6.9 mph - N/A   Overcast
10:55 PM 36.3 °F 30.1 °F 32.4 °F 86% 29.91 in 10.0 mi ESE 8.1 mph - N/A   Overcast
11:55 PM 35.1 °F 28.6 °F 32.4 °F 90% 29.89 in 10.0 mi ESE 8.1 mph - N/A   Partly Cloudy